Imperial, NE

5:52 PM MDT on May 26, 2017 (GMT -0600)
Imperial Municipal

Weather History for KIML - January, 2014

Change the Weather History Date:

Tuesday, January 28, 2014

  Actual Average Record
Temperature  
Mean Temperature 16 °F 29 °F  
Max Temperature 30 °F 42 °F 72 °F (2003)
Min Temperature 1 °F 16 °F -13 °F (1918)
Degree Days  
Heating Degree Days 49 36  
Month to date heating degree days 981 1028  
Cooling Degree Days 0 0  
Month to date cooling degree days 0 0  
Year to date cooling degree days 0 0  
Moisture  
Dew Point -2 °F    
Average Humidity 51    
Maximum Humidity 80    
Minimum Humidity 21    
Precipitation  
Precipitation 0.00 in 0.02 in 0.33 in (2001)
Sea Level Pressure  
Sea Level Pressure 30.36 in    
Wind  
Wind Speed 9 mph (WNW)    
Max Wind Speed 23 mph    
Max Gust Speed 29 mph    
Visibility 10 miles    
Events      
T = Trace of Precipitation, MM = Missing Value Source: NWS Daily Summary

Daily Weather History Graph

Daily Weather History Graph

Search for Another Location

Airport or City:

Trip Planner

Search our weather history database for the weather conditions in past years. The results will help you decide how hot, cold, wet, or windy it might be!

Date:

Astronomy

Jan. 28, 2014 Rise Set
Actual Time 6:59 AM MST 4:59 PM MST
Civil Twilight 6:30 AM MST 5:28 PM MST
Nautical Twilight 5:57 AM MST 6:01 PM MST
Astronomical Twilight 5:25 AM MST 6:34 PM MST
Moon 4:43 AM MST (1/28) 2:52 PM MST (1/28)
Length of Visible Light 10h 58m
Length of Day
10h 00m
Waning Crescent, 7% of the Moon is Illuminated
Jan 28
Waning Crescent
Jan 30
New
Feb 6
First Quarter
Feb 14
Full
Feb 22
Last Quarter

Hourly Weather History & Observations

Time (MST) Temp. Windchill Dew Point Humidity Pressure Visibility Wind Dir Wind Speed Gust Speed Precip Events Conditions
12:53 AM 10.0 °F -4.5 °F 3.9 °F 76% 30.40 in 10.0 mi NW 11.5 mph - N/A   Overcast
1:53 AM 10.0 °F -0.9 °F 3.0 °F 73% 30.40 in 10.0 mi WNW 6.9 mph - N/A   Overcast
2:53 AM 9.0 °F -8.5 °F -0.9 °F 64% 30.43 in 10.0 mi North 16.1 mph - N/A   Overcast
3:53 AM 5.0 °F -8.1 °F -5.1 °F 63% 30.44 in 10.0 mi NNE 8.1 mph - N/A   Mostly Cloudy
4:53 AM 3.9 °F - -6.0 °F 64% 30.45 in 10.0 mi Calm Calm - N/A   Mostly Cloudy
5:53 AM 1.9 °F -7.6 °F -6.0 °F 69% 30.47 in 10.0 mi West 4.6 mph - N/A   Mostly Cloudy
6:53 AM 3.0 °F -6.4 °F -6.0 °F 66% 30.48 in 10.0 mi WSW 4.6 mph - N/A   Overcast
7:53 AM 5.0 °F -6.9 °F -4.0 °F 66% 30.50 in 10.0 mi West 6.9 mph - N/A   Partly Cloudy
8:53 AM 12.0 °F 1.5 °F 1.0 °F 61% 30.48 in 10.0 mi West 6.9 mph - N/A   Clear
9:53 AM 17.1 °F 5.0 °F 1.9 °F 52% 30.47 in 10.0 mi WNW 10.4 mph - N/A   Clear
10:53 AM 21.0 °F 8.1 °F 1.9 °F 44% 30.44 in 10.0 mi WNW 13.8 mph - N/A   Clear
11:53 AM 23.0 °F 10.1 °F -0.0 °F 37% 30.39 in 10.0 mi NW 15.0 mph 28.8 mph N/A   Clear
12:53 PM 24.1 °F 11.0 °F -0.9 °F 34% 30.34 in 10.0 mi NW 16.1 mph 25.3 mph N/A   Clear
1:53 PM 27.0 °F 15.2 °F -2.0 °F 29% 30.29 in 10.0 mi WNW 15.0 mph 24.2 mph N/A   Clear
2:53 PM 30.0 °F 18.7 °F -6.0 °F 21% 30.25 in 10.0 mi WNW 16.1 mph 26.5 mph N/A   Clear
3:53 PM 28.9 °F 17.7 °F -7.1 °F 21% 30.27 in 10.0 mi NNW 15.0 mph - N/A   Clear
4:53 PM 24.1 °F 18.2 °F -7.1 °F 25% 30.27 in 10.0 mi NNW 4.6 mph - N/A   Clear
5:53 PM 19.9 °F 14.9 °F -7.1 °F 30% 30.28 in 9.0 mi SSW 3.5 mph - N/A   Clear
6:53 PM 16.0 °F 6.3 °F -2.0 °F 45% 30.30 in 10.0 mi WSW 6.9 mph - N/A   Clear
7:53 PM 12.0 °F -0.4 °F 1.0 °F 61% 30.29 in 10.0 mi West 9.2 mph - N/A   Clear
8:53 PM 12.9 °F -0.2 °F 1.9 °F 62% 30.26 in 10.0 mi West 10.4 mph - N/A   Clear
9:53 PM 10.0 °F -1.9 °F 1.0 °F 67% 30.25 in 10.0 mi WSW 8.1 mph - N/A   Partly Cloudy
10:53 PM 9.0 °F -3.2 °F 1.0 °F 70% 30.22 in 10.0 mi WSW 8.1 mph - N/A   Scattered Clouds
11:53 PM 7.0 °F -4.5 °F -0.9 °F 70% 30.20 in 10.0 mi WSW 6.9 mph - N/A   Clear